Weather in Walvis Bay

Namibia     22°57′50″S   14°29′35″E
temp.,
°C
wind,
m/s
gust,
m/s
humid.,
%
clouds,
%
prec.,
mm/h
press.,
hPa
HPBL,
m
19 april, mon
mon1923:00+29e10153311 0.0 1013250
02:00+29ene8143510 0.0 1012271
05:00+28ene712382 0.0 1012197
08:00+26ne24424 0.0 101371
11:00+31nne24310 0.0 1014560
14:00+32sw54290 0.0 1011962
17:00+30ssw89340 0.0 1010274
20:00+28s712391 0.0 1011232
20 april, tue
tue2023:00+29sse58344 0.0 1012125
02:00+28sse45360 0.0 101142
05:00+28ese33363 0.0 101021
08:00+27ene34300 0.0 101251
11:00+33ne67220 0.0 1013714
14:00+31wsw54290 0.0 1010703
17:00+29ssw77342 0.0 1010181
20:00+26s7114115 0.0 1011181
21 april, wed
wed2123:00+27s583896 0.0 1012107
02:00+28se34302 0.0 101133
05:00+25nne12385 0.0 101012
08:00+26se23345 0.0 101245
11:00+30nnw4728100 0.0 1013519
14:00+30wsw333174 0.0 1010219
17:00+26ssw674344 0.0 1010206
20:00+23ssw7956100 0.0 1011164
22 april, thu
thu2223:00+25ssw2246100 0.0 101129
02:00+24ssw1145100 0.0 101114
05:00+24s3342100 0.0 101019
08:00+24s33425 0.0 101227
11:00+30ssw13295 0.0 1012427
14:00+28sw743814 0.0 1010308
17:00+28ssw77384 0.0 1009216
20:00+25s684594 0.0 1010134
23 april, fri
fri2323:00+25wsw234390 0.0 101224
02:00+21sw346423 0.0 101284
05:00+22s335776 0.0 101137
08:00+21e126179 0.0 101353
11:00+26ssw43465 0.0 1013239
14:00+27ssw65447 0.0 1011325
17:00+25ssw89470 0.0 1010249
20:00+23s812570 0.0 1011199